[[{"header":{"parameterUnit":"m.s-1","parameterCategory":1,"la1":30.2991,"la2":30.254,"lo1":-89.0895,"lo2":-89.0444,"dy":0.0017,"dx":0.0017,"nx":28,"ny":28,"refTime":"2025-03-10T09:00:00:Z","depth":0,"parameterNumber":2,"parameterNumberName":"U-component_of_WINDS"},"data":[0,0,0,0,0,0,0,0,0,0,0,0,0,0,0,0,0,0,0,0,0,0,0,0,0,0,0,0,0,0,0,0,0,0,0,0,0,0,0,0,0,0,0,0,0,0,0,0,0,0,0,0,0,0,0,0,0,0,2.1865,2.1865,0,2.189,2.189,2.189,2.186,2.1859,2.1858,2.1857,2.1882,2.1884,2.1886,0,0,0,0,0,0,0,0,0,0,0,0,0,2.179,2.1792,2.1865,2.1865,2.1865,2.189,2.189,2.189,2.186,2.1859,2.1858,2.1856,2.1882,2.1884,2.1886,0,0,0,0,0,0,0,0,0,0,0,0,0,2.182,2.1792,2.1864,2.1853,2.1852,2.189,2.189,2.189,2.1861,2.1859,2.1857,2.1856,2.1881,2.1884,2.1886,2.1936,0,0,2.1894,2.1895,0,0,0,0,0,0,0,0,2.1818,2.1823,2.1855,2.1854,2.1853,2.187,2.1873,2.1906,2.1861,2.1858,2.1857,2.1855,2.188,2.1882,2.1891,2.1937,2.1938,2.1894,2.1896,2.1897,2.1898,0,0,0,0,0,0,0,2.1816,2.1821,2.1874,2.1855,2.1854,2.1847,2.1849,2.1879,2.1878,2.1858,2.1856,2.1859,2.1879,2.1888,2.1891,2.1938,2.1894,2.1897,2.1898,2.1899,2.2026,2.2028,0,0,0,0,0,0,2.1816,2.182,2.1874,2.1875,2.1831,2.185,2.1852,2.1866,2.1877,2.1877,2.186,2.1858,2.1885,2.1888,2.1892,2.195,2.1897,2.1899,2.1901,2.2024,2.2026,2.2028,0,0,0,0,0,0,2.1814,2.1821,2.1873,2.1847,2.1853,2.1853,2.1869,2.1868,2.1877,2.1879,2.1879,2.187,2.1883,2.1888,2.1925,2.1951,2.1901,2.1903,2.2022,2.2025,2.2027,2.2067,0,0,0,0,0,0,2.1812,2.182,2.1839,2.1848,2.1855,2.1906,2.187,2.1869,2.1882,2.1878,2.1888,2.1888,2.1883,2.1921,2.1927,2.1953,2.1905,2.202,2.2023,2.2027,2.2064,2.2071,2.2078,0,0,0,0,0,2.1809,2.1849,2.184,2.1847,2.1878,2.1907,2.1911,2.1903,2.1884,2.1903,2.1904,2.1888,2.1947,2.1925,2.1932,2.1959,2.2018,2.2022,2.2026,2.2061,2.207,2.2077,0,0,0,0,0,0,2.1843,2.185,2.184,2.1884,2.1895,2.1902,2.1925,2.1913,2.193,2.1926,2.1916,2.1919,2.1958,2.1962,2.1938,2.2007,2.1979,2.1985,2.2003,2.2012,2.2018,2.2016,2.1907,0,0,0,0,0,2.1856,2.1879,2.1884,2.1922,2.1928,2.1926,2.1938,2.1932,2.1943,2.1947,2.1952,2.1963,2.1984,2.1998,2.2018,2.2064,2.2066,2.2086,2.2093,2.2099,2.2104,2.2129,2.2138,2.2042,2.2042,2.2042,0,0,2.1882,2.1889,2.1904,2.1929,2.1937,2.1961,2.193,2.1957,2.1975,2.1951,2.1986,2.199,2.2002,2.2044,2.2063,2.2049,2.2131,2.2104,2.2108,2.211,2.2134,2.2143,2.2151,2.2045,2.2044,2.2044,0,0,2.1942,2.195,2.1982,2.1991,2.2003,2.2002,2.201,2.2018,2.202,2.2055,2.2038,2.2059,2.2095,2.2105,2.2114,2.2178,2.2164,2.2185,2.2221,2.2245,2.2253,2.2259,2.2282,2.229,2.219,2.219,2.219,0,2.1973,2.2009,2.2,2.2029,2.204,2.202,2.2053,2.2062,2.208,2.2089,2.2073,2.2118,2.2125,2.2169,2.2184,2.2193,2.2201,2.2184,2.2252,2.2259,2.2265,2.2286,2.2295,2.2192,2.2192,2.2192,2.2192,0,2.2046,2.2071,2.2096,2.2115,2.2129,2.2159,2.2155,2.2171,2.2163,2.2163,2.2199,2.2206,2.2227,2.2237,2.2229,2.228,2.2271,2.2254,2.2225,2.2277,2.2297,2.2305,2.2196,2.2195,2.2194,2.2194,0,0,2.2128,2.2142,2.2151,2.2159,2.2171,2.2191,2.222,2.224,2.2254,2.2267,2.2292,2.2323,2.2308,2.2318,2.2312,2.2334,2.2384,2.2314,2.2314,2.2326,2.244,2.2452,2.2462,2.2375,2.2376,2.2377,2.2438,0,2.2188,2.2239,2.2233,2.2282,2.2305,2.2287,2.2312,2.2323,2.2324,2.2343,2.2344,2.2367,2.2344,2.2351,2.2371,2.2373,2.2406,2.2369,2.2397,2.2398,2.2394,2.2472,2.2485,2.2543,2.2446,2.2448,2.2448,0,2.2265,2.2281,2.2333,2.2342,2.2351,2.2375,2.2393,2.2412,2.2423,2.2422,2.2435,2.2424,2.2454,2.2425,2.2466,2.244,2.2452,2.2454,2.2456,2.2458,2.2426,2.2476,2.2561,2.2569,2.2461,2.246,2.2459,0,2.232,2.2354,2.239,2.2397,2.2409,2.2425,2.2431,2.2441,2.2453,2.2469,2.2477,2.2496,2.2507,2.2522,2.2517,2.2497,2.2559,2.2529,2.2559,2.2559,2.2572,2.2571,2.266,2.258,2.258,2.258,2.258,0,2.2387,2.2419,2.2414,2.2436,2.2471,2.2463,2.2499,2.2502,2.2511,2.2533,2.2518,2.2539,2.2531,2.2552,2.2548,2.2582,2.2587,2.2587,2.2586,2.2588,2.2588,2.2595,2.2591,2.2582,2.2581,2.2581,2.2581,0,2.2454,2.2452,2.2489,2.2497,2.25,2.2525,2.2532,2.2552,2.2552,2.258,2.2586,2.2586,2.2609,2.2606,2.2632,2.2629,2.2672,2.2666,2.2668,2.2666,2.2696,2.2693,2.2791,2.2804,2.2716,2.2717,2.2718,0,2.2497,2.2522,2.2532,2.2546,2.2553,2.2575,2.2588,2.2581,2.2595,2.261,2.2628,2.265,2.2668,2.2706,2.2708,2.2728,2.2722,2.2755,2.2724,2.2726,2.2722,2.272,2.2723,2.2761,2.2762,2.2762,2.2763,0,2.2574,2.2572,2.2591,2.261,2.2626,2.2641,2.2654,2.2666,2.266,2.2677,2.27,2.2714,2.274,2.2762,2.2781,2.2786,2.2774,2.2773,2.278,2.2783,2.2783,2.2783,2.2684,2.277,2.277,2.2769,2.2769,2.2768,2.263,2.2651,2.2662,2.2684,2.2693,2.2705,2.2725,2.2727,2.2747,2.2768,2.2763,2.279,2.28,2.2824,2.2832,2.2852,2.284,2.2852,2.2854,2.2857,2.286,2.278,2.2856,2.2856,2.2855,2.2855,2.2855,0,2.2707,2.2712,2.2733,2.2752,2.2769,2.2756,2.277,2.2785,2.2809,2.282,2.2837,2.2864,2.2886,2.2889,2.291,2.2926,2.292,2.2931,2.293,2.2931,2.287,2.2862,2.2935,2.2935,2.2935,2.2935,2.2935,2.2935,2.2748,2.2782,2.2782,2.282,2.2826,2.2852,2.2861,2.2873,2.2881,2.2913,2.293,2.2933,2.2941,2.2962,2.2981,2.2981,2.2989,2.3002,2.3001,2.2944,2.2936,2.2928,2.292,2.3004,2.3004,2.306,2.306,2.306]},{"header":{"parameterUnit":"m.s-1","parameterCategory":1,"la1":30.2991,"la2":30.254,"lo1":-89.0895,"lo2":-89.0444,"dy":0.0017,"dx":0.0017,"nx":28,"ny":28,"refTime":"2025-03-10T09:00:00:Z","depth":0,"parameterNumber":3,"parameterNumberName":"V-component_of_WINDS"},"data":[0,0,0,0,0,0,0,0,0,0,0,0,0,0,0,0,0,0,0,0,0,0,0,0,0,0,0,0,0,0,0,0,0,0,0,0,0,0,0,0,0,0,0,0,0,0,0,0,0,0,0,0,0,0,0,0,0,0,-1.7978,-1.7978,0,-1.8047,-1.8048,-1.8048,-1.8059,-1.8059,-1.8058,-1.8058,-1.8128,-1.813,-1.8133,0,0,0,0,0,0,0,0,0,0,0,0,0,-1.7856,-1.7858,-1.7977,-1.7978,-1.7979,-1.8047,-1.8048,-1.8049,-1.8059,-1.8059,-1.8058,-1.8057,-1.8127,-1.813,-1.8133,0,0,0,0,0,0,0,0,0,0,0,0,0,-1.7915,-1.7859,-1.7977,-1.7993,-1.7995,-1.8047,-1.8048,-1.8049,-1.806,-1.8059,-1.8058,-1.8057,-1.8126,-1.813,-1.8133,-1.8174,0,0,-1.8145,-1.8146,0,0,0,0,0,0,0,0,-1.7912,-1.792,-1.799,-1.7992,-1.7994,-1.8044,-1.8031,-1.8091,-1.806,-1.8035,-1.8058,-1.8057,-1.8101,-1.8106,-1.8121,-1.8178,-1.8181,-1.8145,-1.8147,-1.8149,-1.815,0,0,0,0,0,0,0,-1.7908,-1.7917,-1.8005,-1.7991,-1.7993,-1.7997,-1.8004,-1.8042,-1.8072,-1.8037,-1.8038,-1.8046,-1.8102,-1.8118,-1.8123,-1.8182,-1.8145,-1.8148,-1.815,-1.8152,-1.8277,-1.8278,0,0,0,0,0,0,-1.7901,-1.7913,-1.8003,-1.8007,-1.795,-1.8,-1.8008,-1.8029,-1.8072,-1.8077,-1.8047,-1.8046,-1.8112,-1.8119,-1.8126,-1.8177,-1.8149,-1.8152,-1.8154,-1.8276,-1.8277,-1.8278,0,0,0,0,0,0,-1.7898,-1.7909,-1.8,-1.796,-1.7972,-1.8003,-1.8026,-1.803,-1.8047,-1.8079,-1.8084,-1.8058,-1.8111,-1.812,-1.8163,-1.818,-1.8154,-1.8157,-1.8274,-1.8276,-1.8278,-1.828,0,0,0,0,0,0,-1.7894,-1.7907,-1.7923,-1.7961,-1.7974,-1.8035,-1.8027,-1.8032,-1.8053,-1.8053,-1.8091,-1.8096,-1.8111,-1.8157,-1.8166,-1.8184,-1.816,-1.8273,-1.8275,-1.8277,-1.8279,-1.8282,-1.8284,0,0,0,0,0,-1.789,-1.792,-1.7924,-1.7934,-1.7994,-1.8036,-1.8044,-1.8061,-1.8054,-1.807,-1.8092,-1.8095,-1.8177,-1.8161,-1.8172,-1.8191,-1.8272,-1.8275,-1.8277,-1.8277,-1.8281,-1.8284,0,0,0,0,0,0,-1.7883,-1.7925,-1.793,-1.7973,-1.8001,-1.8038,-1.8059,-1.8065,-1.8095,-1.8094,-1.8114,-1.8122,-1.8164,-1.8182,-1.8164,-1.8234,-1.8224,-1.8228,-1.822,-1.8224,-1.8227,-1.8222,-1.8163,0,0,0,0,0,-1.7887,-1.7917,-1.7953,-1.7988,-1.8002,-1.8028,-1.8047,-1.8058,-1.8088,-1.8099,-1.8124,-1.8153,-1.8185,-1.8206,-1.8237,-1.8282,-1.8291,-1.83,-1.8303,-1.8305,-1.8309,-1.8335,-1.834,-1.8287,-1.8287,-1.8287,0,0,-1.7894,-1.7921,-1.7939,-1.7987,-1.801,-1.8042,-1.8038,-1.8071,-1.8095,-1.8104,-1.8146,-1.8165,-1.8199,-1.8243,-1.8263,-1.8259,-1.8326,-1.8309,-1.831,-1.8313,-1.8339,-1.8344,-1.8348,-1.8288,-1.8288,-1.8288,0,0,-1.7924,-1.7948,-1.798,-1.8003,-1.8039,-1.8056,-1.8064,-1.8101,-1.8114,-1.8156,-1.8165,-1.8194,-1.8249,-1.8273,-1.8292,-1.8334,-1.8338,-1.8343,-1.8358,-1.8383,-1.8388,-1.8391,-1.8407,-1.8412,-1.8347,-1.8347,-1.8347,0,-1.7929,-1.7977,-1.7995,-1.8029,-1.805,-1.8062,-1.8095,-1.8117,-1.816,-1.8175,-1.817,-1.8241,-1.8264,-1.8314,-1.8325,-1.834,-1.835,-1.8339,-1.8385,-1.839,-1.8393,-1.8408,-1.8414,-1.8348,-1.8347,-1.8347,-1.8347,0,-1.7981,-1.8015,-1.8036,-1.8079,-1.8103,-1.8136,-1.816,-1.8182,-1.8192,-1.821,-1.8254,-1.8283,-1.8321,-1.8334,-1.8343,-1.8386,-1.8383,-1.8381,-1.8371,-1.8399,-1.8413,-1.8419,-1.8348,-1.8348,-1.8348,-1.8348,0,0,-1.8007,-1.8061,-1.8069,-1.8089,-1.813,-1.8156,-1.8191,-1.8228,-1.8247,-1.8278,-1.8307,-1.8355,-1.8354,-1.8377,-1.8389,-1.8411,-1.8444,-1.8407,-1.8409,-1.8413,-1.8494,-1.8495,-1.8501,-1.8447,-1.8448,-1.8449,-1.8491,0,-1.8042,-1.8103,-1.8122,-1.8174,-1.8205,-1.8218,-1.8248,-1.8277,-1.8295,-1.8325,-1.8346,-1.8379,-1.8376,-1.839,-1.8412,-1.8435,-1.846,-1.8432,-1.8475,-1.8477,-1.8466,-1.8508,-1.8509,-1.8547,-1.8497,-1.8498,-1.8499,0,-1.8091,-1.8123,-1.8177,-1.8216,-1.823,-1.8256,-1.8293,-1.8322,-1.8355,-1.8367,-1.8393,-1.8404,-1.8442,-1.843,-1.8482,-1.8463,-1.8482,-1.8496,-1.8498,-1.8502,-1.8489,-1.8514,-1.8559,-1.8565,-1.8508,-1.8507,-1.8506,0,-1.8104,-1.8161,-1.8202,-1.8219,-1.8264,-1.8283,-1.8303,-1.8335,-1.8358,-1.839,-1.8405,-1.8442,-1.8462,-1.849,-1.8511,-1.8501,-1.8562,-1.8552,-1.8573,-1.8573,-1.8585,-1.8584,-1.8634,-1.8597,-1.8597,-1.8597,-1.8597,0,-1.8141,-1.8174,-1.8209,-1.8234,-1.8272,-1.8294,-1.8331,-1.8352,-1.8381,-1.8411,-1.8424,-1.8451,-1.8478,-1.8509,-1.8526,-1.8567,-1.8576,-1.8587,-1.8591,-1.8586,-1.8585,-1.8598,-1.8596,-1.8599,-1.8598,-1.8598,-1.8598,0,-1.8163,-1.8187,-1.8232,-1.8272,-1.8283,-1.831,-1.8344,-1.8369,-1.8389,-1.8427,-1.8437,-1.8468,-1.8506,-1.8531,-1.8578,-1.859,-1.8635,-1.8638,-1.8624,-1.8626,-1.8646,-1.8644,-1.8707,-1.8717,-1.8673,-1.8674,-1.8674,0,-1.8184,-1.821,-1.8254,-1.8275,-1.8295,-1.8328,-1.8352,-1.8375,-1.8398,-1.844,-1.846,-1.8499,-1.8531,-1.8592,-1.8619,-1.8656,-1.866,-1.868,-1.8666,-1.866,-1.8661,-1.866,-1.8663,-1.8682,-1.8682,-1.8683,-1.8683,0,-1.822,-1.8232,-1.8264,-1.8302,-1.8329,-1.836,-1.8391,-1.8407,-1.8436,-1.8462,-1.8501,-1.8527,-1.8577,-1.8615,-1.8656,-1.8677,-1.8685,-1.8687,-1.8694,-1.8689,-1.868,-1.8686,-1.863,-1.8686,-1.8685,-1.8685,-1.8685,-1.8685,-1.8243,-1.8267,-1.8302,-1.8338,-1.8364,-1.8393,-1.8419,-1.8443,-1.8476,-1.8519,-1.8531,-1.8572,-1.8607,-1.8662,-1.8684,-1.8717,-1.8714,-1.8724,-1.8727,-1.8729,-1.873,-1.8675,-1.8724,-1.8724,-1.8724,-1.8724,-1.8724,0,-1.828,-1.8304,-1.8337,-1.838,-1.8409,-1.8415,-1.845,-1.8474,-1.851,-1.8542,-1.8574,-1.862,-1.8658,-1.8689,-1.8729,-1.875,-1.8755,-1.8759,-1.8758,-1.8763,-1.8729,-1.8719,-1.8755,-1.8755,-1.8755,-1.8755,-1.8755,-1.8755,-1.8303,-1.8344,-1.836,-1.8415,-1.8439,-1.8479,-1.8499,-1.8526,-1.8552,-1.8603,-1.8635,-1.8655,-1.8687,-1.873,-1.8765,-1.8774,-1.8788,-1.8792,-1.8801,-1.8769,-1.8765,-1.8762,-1.8753,-1.8795,-1.8795,-1.8832,-1.8832,-1.8833]}]]